Terug naar catalogus

TAURUS R/B

ActiefSSO
NORAD 26103·ROCKET BODY·🇺🇸 United States

Gelanceerd Mar 12, 2000 vanaf Vandenberg Space Force Base

Loading…

Volgende Passages (komende 24 uur)

TLE

VersSource: Space-Track

Epoch: Sep 14, 2026, 07:34 UTC

1 26103U 00014B   26257.31561387  .00009247  00000-0  20938-3 0  9990
2 26103  97.4269 194.7946 0014751   6.7111 353.4331 15.43234916459171

Volg TAURUS R/B in realtime met AllMySat

Download on the App Store